Pierceville, KS

12:12 AM CST on February 21, 2017 (GMT -0600)
Garden City Regional

Weather History for KGCK - January, 2014

Change the Weather History Date:

Friday, January 3, 2014

  Actual Average Record
Temperature  
Mean Temperature 39 °F 31 °F  
Max Temperature 55 °F 44 °F 76 °F (2006)
Min Temperature 22 °F 18 °F -10 °F (1979)
Degree Days  
Heating Degree Days 26 34  
Month to date heating degree days 105 102  
Since 1 July heating degree days 2226 2225  
Cooling Degree Days 0 0  
Month to date cooling degree days 0 0  
Year to date cooling degree days 0 0  
Moisture  
Dew Point 23 °F    
Average Humidity 59    
Maximum Humidity 88    
Minimum Humidity 30    
Precipitation  
Precipitation 0.00 in 0.01 in 0.50 in (1990)
Month to date precipitation T 0.03  
Year to date precipitation T 0.03  
Sea Level Pressure  
Sea Level Pressure 29.85 in    
Wind  
Wind Speed 13 mph (South)    
Max Wind Speed 20 mph    
Max Gust Speed 23 mph    
Visibility 10 miles    
Events      
T = Trace of Precipitation, MM = Missing Value Source: NWS Daily Summary

Daily Weather History Graph

Daily Weather History Graph

Search for Another Location

Airport or City:

Trip Planner

Search our weather history database for the weather conditions in past years. The results will help you decide how hot, cold, wet, or windy it might be!

Date:

Astronomy

Jan. 03, 2014 Rise Set
Actual Time 7:59 AM CST 5:36 PM CST
Civil Twilight 7:29 AM CST 6:05 PM CST
Nautical Twilight 6:56 AM CST 6:38 PM CST
Astronomical Twilight 6:25 AM CST 7:10 PM CST
Moon 9:29 AM CST (1/3) 8:44 PM CST (1/3)
Length of Visible Light 10h 35m
Length of Day
9h 37m
Waxing Crescent, 8% of the Moon is Illuminated
Jan 3
Waxing Crescent
Jan 7
First Quarter
Jan 15
Full
Jan 23
Last Quarter
Jan 30
New

Hourly Weather History & Observations

Time (CST) Temp. Windchill Dew Point Humidity Pressure Visibility Wind Dir Wind Speed Gust Speed Precip Events Conditions
12:54 AM 24.1 °F 14.4 °F 19.9 °F 84% 30.18 in 10.0 mi South 9.2 mph - N/A   Clear
1:54 AM 23.0 °F 13.1 °F 19.0 °F 85% 30.15 in 10.0 mi South 9.2 mph - N/A   Clear
2:54 AM 21.9 °F 12.5 °F 18.0 °F 85% 30.11 in 10.0 mi South 8.1 mph - N/A   Clear
3:54 AM 24.1 °F 13.7 °F 19.9 °F 84% 30.07 in 10.0 mi South 10.4 mph - N/A   Clear
4:54 AM 25.0 °F 14.8 °F 19.9 °F 81% 30.05 in 10.0 mi SSE 10.4 mph - N/A   Clear
5:54 AM 24.1 °F 12.0 °F 19.9 °F 84% 30.03 in 10.0 mi South 13.8 mph - N/A   Clear
6:54 AM 26.1 °F 13.1 °F 21.0 °F 81% 30.01 in 10.0 mi South 17.3 mph - N/A   Clear
7:54 AM 25.0 °F 11.7 °F 19.9 °F 81% 29.99 in 10.0 mi South 17.3 mph - N/A   Clear
8:54 AM 27.0 °F 18.0 °F 21.0 °F 78% 29.99 in 10.0 mi South 9.2 mph - N/A   Clear
9:54 AM 33.1 °F 22.6 °F 24.1 °F 70% 29.96 in 10.0 mi SSW 16.1 mph - N/A   Clear
10:54 AM 37.0 °F 27.7 °F 25.0 °F 62% 29.93 in 10.0 mi SSW 16.1 mph - N/A   Clear
11:54 AM 42.1 °F 34.9 °F 26.1 °F 53% 29.86 in 10.0 mi SSW 13.8 mph - N/A   Clear
12:54 PM 46.9 °F - 26.1 °F 44% 29.81 in 10.0 mi SSW 15.0 mph - N/A   Clear
1:54 PM 52.0 °F - 25.0 °F 35% 29.75 in 10.0 mi SSW 17.3 mph - N/A   Clear
2:54 PM 53.1 °F - 24.1 °F 32% 29.72 in 10.0 mi South 18.4 mph - N/A   Clear
3:54 PM 55.0 °F - 24.1 °F 30% 29.69 in 10.0 mi South 16.1 mph - N/A   Clear
4:54 PM 52.0 °F - 23.0 °F 32% 29.68 in 10.0 mi South 10.4 mph - N/A   Clear
5:54 PM 42.1 °F 36.6 °F 24.1 °F 49% 29.69 in 10.0 mi SE 9.2 mph - N/A   Clear
6:54 PM 39.9 °F 32.9 °F 23.0 °F 51% 29.68 in 10.0 mi SSE 11.5 mph - N/A   Clear
7:54 PM 37.9 °F 29.6 °F 23.0 °F 55% 29.67 in 10.0 mi SSE 13.8 mph - N/A   Clear
8:54 PM 37.0 °F 28.9 °F 24.1 °F 59% 29.65 in 10.0 mi SSE 12.7 mph - N/A   Clear
9:54 PM 33.1 °F 26.9 °F 24.1 °F 70% 29.63 in 10.0 mi South 6.9 mph - N/A   Clear
10:54 PM 32.0 °F 23.6 °F 24.1 °F 73% 29.61 in 10.0 mi South 10.4 mph - N/A   Clear
11:54 PM 30.9 °F 22.8 °F 23.0 °F 72% 29.58 in 10.0 mi South 9.2 mph - N/A   Clear